"Sample Date","Sample Time","Sample Value","Units","Flow Rate","Laser Status","Micron Size 0","Counts/Channel 0","Micron Size 1","Counts/Channel 1","Micron Size 2","Counts/Channel 2","Micron Size 3","Counts/Channel 3","Micron Size 4","Counts/Channel 4","Micron Size 5","Counts/Channel 5","Micron Size 6","Counts/Channel 6","Micron Size 7","Counts/Channel 7","Micron Size 8","Counts/Channel 8","Micron Size 9","Counts/Channel 9","Micron Size 10","Counts/Channel 10","Micron Size 11","Counts/Channel 11","Micron Size 12","Counts/Channel 12","Micron Size 13","Counts/Channel 13","Micron Size 14","Counts/Channel 14","Micron Size 15","Counts/Channel 15","Micron Size 16","Counts/Channel 16","Micron Size 17","Counts/Channel 17","Micron Size 18","Counts/Channel 18","Micron Size 19","Counts/Channel 19","Micron Size 20","Counts/Channel 20","Micron Size 21","Counts/Channel 21","Micron Size 22","Counts/Channel 22","Micron Size 23","Counts/Channel 23","Micron Size 24","Counts/Channel 24","Micron Size 25","Counts/Channel 25","Micron Size 26","Counts/Channel 26","Micron Size 27","Counts/Channel 27","Micron Size 28","Counts/Channel 28","Micron Size 29","Counts/Channel 29","Micron Size 30","Counts/Channel 30","Micron Size 31","Counts/Channel 31"
"05/03/07","18:48:54",30874.000,"cc",28145.154,1,0.100,17964.000,0.200,9997.000,0.300,2044.000,0.500,553.000,1.000,316.000,5.000,0
"05/03/07","18:49:00",30665.000,"cc",28347.164,1,0.100,17852.000,0.200,9881.000,0.300,2052.000,0.500,529.000,1.000,351.000,5.000,0
"05/03/07","18:49:06",31011.000,"cc",28321.363,1,0.100,17905.000,0.200,10043.000,0.300,2114.000,0.500,596.000,1.000,353.000,5.000,0
"05/03/07","18:49:12",30799.000,"cc",28363.359,1,0.100,17840.000,0.200,9972.000,0.300,2083.000,0.500,563.000,1.000,341.000,5.000,0
"05/03/07","18:49:18",30884.000,"cc",28308.066,1,0.100,17738.000,0.200,10022.000,0.300,2170.000,0.500,581.000,1.000,373.000,5.000,0
"05/03/07","18:49:24",30533.000,"cc",28258.799,1,0.100,17404.000,0.200,10130.000,0.300,2141.000,0.500,543.000,1.000,315.000,5.000,0
"05/03/07","18:49:30",30942.000,"cc",28233.533,1,0.100,17945.000,0.200,9934.000,0.300,2160.000,0.500,565.000,1.000,338.000,5.000,0
"05/03/07","18:49:36",31051.000,"cc",28320.713,1,0.100,17771.000,0.200,10253.000,0.300,2091.000,0.500,607.000,1.000,329.000,5.000,0
"05/03/07","18:49:42",30964.000,"cc",28257.039,1,0.100,17769.000,0.200,9986.000,0.300,2249.000,0.500,610.000,1.000,350.000,5.000,0
"05/03/07","18:49:48",30953.000,"cc",28323.621,1,0.100,17739.000,0.200,10141.000,0.300,2192.000,0.500,582.000,1.000,299.000,5.000,0
"05/03/07","18:49:54",31320.000,"cc",28295.992,1,0.100,17939.000,0.200,10173.000,0.300,2259.000,0.500,592.000,1.000,357.000,5.000,0
"05/03/07","18:50:00",30536.000,"cc",28368.936,1,0.100,17512.000,0.200,9989.000,0.300,2140.000,0.500,540.000,1.000,355.000,5.000,0
"05/03/07","18:50:06",30593.000,"cc",28259.473,1,0.100,17502.000,0.200,10028.000,0.300,2098.000,0.500,621.000,1.000,344.000,5.000,0
"05/03/07","18:50:12",30878.000,"cc",28267.508,1,0.100,17685.000,0.200,10146.000,0.300,2137.000,0.500,549.000,1.000,361.000,5.000,0
"05/03/07","18:50:18",30770.000,"cc",28320.096,1,0.100,17660.000,0.200,10007.000,0.300,2189.000,0.500,590.000,1.000,324.000,5.000,0
"05/03/07","18:50:24",31468.000,"cc",28276.371,1,0.100,18049.000,0.200,10134.000,0.300,2272.000,0.500,628.000,1.000,385.000,5.000,0
"05/03/07","18:50:30",30885.000,"cc",28318.721,1,0.100,17684.000,0.200,10104.000,0.300,2130.000,0.500,592.000,1.000,375.000,5.000,0
"05/03/07","18:50:36",31167.000,"cc",28305.277,1,0.100,17941.000,0.200,10063.000,0.300,2200.000,0.500,602.000,1.000,361.000,5.000,0
"05/03/07","18:50:42",30937.000,"cc",28323.211,1,0.100,17839.000,0.200,9971.000,0.300,2218.000,0.500,548.000,1.000,361.000,5.000,0
"05/03/07","18:50:48",30605.000,"cc",28348.555,1,0.100,17351.000,0.200,10290.000,0.300,2055.000,0.500,596.000,1.000,313.000,5.000,0
"05/03/07","18:50:54",30687.000,"cc",28254.539,1,0.100,17723.000,0.200,9832.000,0.300,2209.000,0.500,574.000,1.000,349.000,5.000,0
"05/03/07","18:51:00",30731.000,"cc",28299.676,1,0.100,17626.000,0.200,10009.000,0.300,2165.000,0.500,564.000,1.000,367.000,5.000,0
"05/03/07","18:51:06",31036.000,"cc",28281.293,1,0.100,17895.000,0.200,9996.000,0.300,2160.000,0.500,635.000,1.000,350.000,5.000,0
"05/03/07","18:51:12",30817.000,"cc",28365.055,1,0.100,17640.000,0.200,10136.000,0.300,2088.000,0.500,585.000,1.000,368.000,5.000,0
"05/03/07","18:51:18",30803.000,"cc",28304.986,1,0.100,17691.000,0.200,9996.000,0.300,2169.000,0.500,572.000,1.000,375.000,5.000,0
"05/03/07","18:51:24",30703.000,"cc",28316.139,1,0.100,17610.000,0.200,9914.000,0.300,2204.000,0.500,587.000,1.000,388.000,5.000,0
"05/03/07","18:51:30",30548.000,"cc",28306.834,1,0.100,17484.000,0.200,10015.000,0.300,2140.000,0.500,561.000,1.000,348.000,5.000,0
"05/03/07","18:51:36",30512.000,"cc",28282.772,1,0.100,17692.000,0.200,9746.000,0.300,2107.000,0.500,592.000,1.000,375.000,5.000,0
"05/03/07","18:51:42",30413.000,"cc",28335.664,1,0.100,17660.000,0.200,9770.000,0.300,2066.000,0.500,597.000,1.000,320.000,5.000,0
"05/03/07","18:51:48",30402.000,"cc",28322.100,1,0.100,17544.000,0.200,9806.000,0.300,2132.000,0.500,609.000,1.000,311.000,5.000,0
"05/03/07","18:51:54",30066.000,"cc",28268.945,1,0.100,17297.000,0.200,9771.000,0.300,2076.000,0.500,573.000,1.000,349.000,5.000,0
"05/03/07","18:52:00",30540.000,"cc",28281.967,1,0.100,17799.000,0.200,9676.000,0.300,2119.000,0.500,607.000,1.000,339.000,5.000,0
"05/03/07","18:52:06",30640.000,"cc",28286.104,1,0.100,17763.000,0.200,9856.000,0.300,2122.000,0.500,574.000,1.000,325.000,5.000,0
"05/03/07","18:52:12",30326.000,"cc",28347.084,1,0.100,17590.000,0.200,9769.000,0.300,2086.000,0.500,560.000,1.000,321.000,5.000,0
"05/03/07","18:52:18",30219.000,"cc",28345.133,1,0.100,17645.000,0.200,9516.000,0.300,2125.000,0.500,582.000,1.000,351.000,5.000,0
"05/03/07","18:52:24",30345.000,"cc",28251.240,1,0.100,17712.000,0.200,9625.000,0.300,2103.000,0.500,570.000,1.000,335.000,5.000,0
"05/03/07","18:52:30",30658.000,"cc",28240.117,1,0.100,18001.000,0.200,9708.000,0.300,2026.000,0.500,585.000,1.000,338.000,5.000,0
"05/03/07","18:52:36",30315.000,"cc",28289.381,1,0.100,17751.000,0.200,9548.000,0.300,2097.000,0.500,598.000,1.000,321.000,5.000,0
"05/03/07","18:52:42",30190.000,"cc",28355.301,1,0.100,17662.000,0.200,9598.000,0.300,1995.000,0.500,571.000,1.000,364.000,5.000,0
"05/03/07","18:52:48",30370.000,"cc",28333.297,1,0.100,17675.000,0.200,9628.000,0.300,2096.000,0.500,627.000,1.000,344.000,5.000,0
"05/03/07","18:52:54",29818.000,"cc",28238.690,1,0.100,17483.000,0.200,9437.000,0.300,2035.000,0.500,563.000,1.000,300.000,5.000,0
"05/03/07","18:53:00",29946.000,"cc",28281.578,1,0.100,17406.000,0.200,9575.000,0.300,2043.000,0.500,571.000,1.000,351.000,5.000,0
"05/03/07","18:53:06",30162.000,"cc",28297.178,1,0.100,17417.000,0.200,9746.000,0.300,2062.000,0.500,600.000,1.000,337.000,5.000,0
"05/03/07","18:53:12",30408.000,"cc",28309.254,1,0.100,17762.000,0.200,9590.000,0.300,2091.000,0.500,615.000,1.000,350.000,5.000,0
"05/03/07","18:53:18",30439.000,"cc",28309.975,1,0.100,17667.000,0.200,9785.000,0.300,2069.000,0.500,580.000,1.000,338.000,5.000,0
"05/03/07","18:53:24",30467.000,"cc",28326.279,1,0.100,17554.000,0.200,9858.000,0.300,2128.000,0.500,581.000,1.000,346.000,5.000,0
"05/03/07","18:53:30",30286.000,"cc",28288.531,1,0.100,17456.000,0.200,9835.000,0.300,2125.000,0.500,551.000,1.000,319.000,5.000,0
"05/03/07","18:53:36",30576.000,"cc",28294.156,1,0.100,17454.000,0.200,9945.000,0.300,2201.000,0.500,564.000,1.000,412.000,5.000,0
"05/03/07","18:53:42",30078.000,"cc",28309.488,1,0.100,17381.000,0.200,9677.000,0.300,2093.000,0.500,605.000,1.000,322.000,5.000,0
"05/03/07","18:53:48",30171.000,"cc",28319.111,1,0.100,17369.000,0.200,9784.000,0.300,2095.000,0.500,567.000,1.000,356.000,5.000,0
"05/03/07","18:53:54",30251.000,"cc",28251.375,1,0.100,17334.000,0.200,9863.000,0.300,2140.000,0.500,577.000,1.000,337.000,5.000,0
"05/03/07","18:54:00",29843.000,"cc",28259.795,1,0.100,17272.000,0.200,9603.000,0.300,2040.000,0.500,543.000,1.000,385.000,5.000,0
"05/03/07","18:54:06",30205.000,"cc",28341.504,1,0.100,17622.000,0.200,9536.000,0.300,2069.000,0.500,619.000,1.000,359.000,5.000,0
"05/03/07","18:54:12",30091.000,"cc",28327.734,1,0.100,17491.000,0.200,9652.000,0.300,2046.000,0.500,564.000,1.000,338.000,5.000,0
"05/03/07","18:54:18",30145.000,"cc",28279.342,1,0.100,17494.000,0.200,9612.000,0.300,2131.000,0.500,527.000,1.000,381.000,5.000,0
"05/03/07","18:54:24",30109.000,"cc",28284.520,1,0.100,17529.000,0.200,9584.000,0.300,2045.000,0.500,596.000,1.000,355.000,5.000,0
"05/03/07","18:54:30",30117.000,"cc",28311.393,1,0.100,17499.000,0.200,9671.000,0.300,2013.000,0.500,588.000,1.000,345.000,5.000,1.000
"05/03/07","18:54:36",30216.000,"cc",28378.289,1,0.100,17521.000,0.200,9541.000,0.300,2145.000,0.500,648.000,1.000,361.000,5.000,0
"05/03/07","18:54:42",29903.000,"cc",28330.943,1,0.100,17303.000,0.200,9474.000,0.300,2149.000,0.500,626.000,1.000,351.000,5.000,0
"05/03/07","18:54:48",30295.000,"cc",28335.586,1,0.100,17187.000,0.200,10067.000,0.300,2073.000,0.500,601.000,1.000,364.000,5.000,3.000
"05/03/07","18:54:54",29879.000,"cc",28291.318,1,0.100,17143.000,0.200,9706.000,0.300,2084.000,0.500,608.000,1.000,338.000,5.000,0
"05/03/07","18:55:00",29756.000,"cc",28268.854,1,0.100,17348.000,0.200,9505.000,0.300,2023.000,0.500,562.000,1.000,318.000,5.000,0
"05/03/07","18:55:06",29836.000,"cc",28283.563,1,0.100,17262.000,0.200,9662.000,0.300,2002.000,0.500,566.000,1.000,344.000,5.000,0
"05/03/07","18:55:12",29643.000,"cc",28296.650,1,0.100,17260.000,0.200,9462.000,0.300,2011.000,0.500,535.000,1.000,375.000,5.000,0
"05/03/07","18:55:18",29357.000,"cc",28314.666,1,0.100,17142.000,0.200,9309.000,0.300,1981.000,0.500,583.000,1.000,342.000,5.000,0
"05/03/07","18:55:24",29229.000,"cc",28278.246,1,0.100,17126.000,0.200,9267.000,0.300,1960.000,0.500,555.000,1.000,321.000,5.000,0
"05/03/07","18:55:30",29119.000,"cc",28292.682,1,0.100,17087.000,0.200,9143.000,0.300,1966.000,0.500,576.000,1.000,347.000,5.000,0
"05/03/07","18:55:36",29300.000,"cc",28308.063,1,0.100,17495.000,0.200,9025.000,0.300,1946.000,0.500,533.000,1.000,301.000,5.000,0
"05/03/07","18:55:42",29405.000,"cc",28364.852,1,0.100,17318.000,0.200,9113.000,0.300,2053.000,0.500,578.000,1.000,343.000,5.000,0
"05/03/07","18:55:48",29118.000,"cc",28293.736,1,0.100,17093.000,0.200,9121.000,0.300,2014.000,0.500,549.000,1.000,341.000,5.000,0
"05/03/07","18:55:54",29623.000,"cc",28374.004,1,0.100,17281.000,0.200,9366.000,0.300,2067.000,0.500,570.000,1.000,339.000,5.000,0
"05/03/07","18:56:00",29562.000,"cc",28307.066,1,0.100,17377.000,0.200,9268.000,0.300,2004.000,0.500,585.000,1.000,328.000,5.000,0
"05/03/07","18:56:06",29123.000,"cc",28254.658,1,0.100,17078.000,0.200,9254.000,0.300,1934.000,0.500,546.000,1.000,311.000,5.000,0
"05/03/07","18:56:12",28602.000,"cc",28274.342,1,0.100,16994.000,0.200,8826.000,0.300,1884.000,0.500,552.000,1.000,346.000,5.000,0
"05/03/07","18:56:18",29189.000,"cc",28296.596,1,0.100,17314.000,0.200,9092.000,0.300,1922.000,0.500,552.000,1.000,309.000,5.000,0
"05/03/07","18:56:24",28797.000,"cc",28288.998,1,0.100,17006.000,0.200,9086.000,0.300,1854.000,0.500,571.000,1.000,280.000,5.000,0
"05/03/07","18:56:30",28980.000,"cc",28294.998,1,0.100,17226.000,0.200,8961.000,0.300,1933.000,0.500,530.000,1.000,330.000,5.000,0
"05/03/07","18:56:36",29123.000,"cc",28331.070,1,0.100,17139.000,0.200,9189.000,0.300,1894.000,0.500,577.000,1.000,324.000,5.000,0
"05/03/07","18:56:42",29066.000,"cc",28382.455,1,0.100,17238.000,0.200,9052.000,0.300,1878.000,0.500,561.000,1.000,337.000,5.000,0
"05/03/07","18:56:48",29005.000,"cc",28286.775,1,0.100,17275.000,0.200,8962.000,0.300,1924.000,0.500,547.000,1.000,297.000,5.000,0
"05/03/07","18:56:54",29290.000,"cc",28348.795,1,0.100,17545.000,0.200,8968.000,0.300,1921.000,0.500,530.000,1.000,326.000,5.000,0
"05/03/07","18:57:00",29308.000,"cc",28328.951,1,0.100,17630.000,0.200,8958.000,0.300,1885.000,0.500,534.000,1.000,301.000,5.000,0
"05/03/07","18:57:06",29265.000,"cc",28301.023,1,0.100,17540.000,0.200,8974.000,0.300,1912.000,0.500,529.000,1.000,310.000,5.000,0
"05/03/07","18:57:12",29305.000,"cc",28305.107,1,0.100,17351.000,0.200,9166.000,0.300,1885.000,0.500,569.000,1.000,334.000,5.000,0
"05/03/07","18:57:18",29653.000,"cc",28277.275,1,0.100,17442.000,0.200,9292.000,0.300,1996.000,0.500,577.000,1.000,346.000,5.000,0
"05/03/07","18:57:24",29855.000,"cc",28307.918,1,0.100,17659.000,0.200,9264.000,0.300,2033.000,0.500,559.000,1.000,340.000,5.000,0
"05/03/07","18:57:30",29413.000,"cc",28329.783,1,0.100,17254.000,0.200,9171.000,0.300,2071.000,0.500,595.000,1.000,322.000,5.000,0
"05/03/07","18:57:36",29782.000,"cc",28295.662,1,0.100,17361.000,0.200,9406.000,0.300,2042.000,0.500,596.000,1.000,377.000,5.000,0
"05/03/07","18:57:42",29588.000,"cc",28308.711,1,0.100,17414.000,0.200,9329.000,0.300,2024.000,0.500,514.000,1.000,307.000,5.000,0
"05/03/07","18:57:48",29348.000,"cc",28295.430,1,0.100,17270.000,0.200,9170.000,0.300,2021.000,0.500,550.000,1.000,337.000,5.000,0
"05/03/07","18:57:54",29360.000,"cc",28290.213,1,0.100,17208.000,0.200,9266.000,0.300,1970.000,0.500,585.000,1.000,331.000,5.000,0
"05/03/07","18:58:00",29466.000,"cc",28322.699,1,0.100,17532.000,0.200,9006.000,0.300,1951.000,0.500,593.000,1.000,384.000,5.000,0
"05/03/07","18:58:06",29050.000,"cc",28362.359,1,0.100,17420.000,0.200,8935.000,0.300,1863.000,0.500,515.000,1.000,317.000,5.000,0
"05/03/07","18:58:12",29169.000,"cc",28341.328,1,0.100,17186.000,0.200,9222.000,0.300,1908.000,0.500,520.000,1.000,333.000,5.000,0
"05/03/07","18:58:18",29017.000,"cc",28284.908,1,0.100,17365.000,0.200,8926.000,0.300,1859.000,0.500,545.000,1.000,322.000,5.000,0
"05/03/07","18:58:24",28735.000,"cc",28287.918,1,0.100,17194.000,0.200,8821.000,0.300,1795.000,0.500,590.000,1.000,335.000,5.000,0
"05/03/07","18:58:30",28598.000,"cc",28341.871,1,0.100,17230.000,0.200,8801.000,0.300,1768.000,0.500,515.000,1.000,284.000,5.000,0
"05/03/07","18:58:36",28980.000,"cc",28295.922,1,0.100,17631.000,0.200,8699.000,0.300,1821.000,0.500,542.000,1.000,287.000,5.000,0
"05/03/07","18:58:42",28694.000,"cc",28339.637,1,0.100,17256.000,0.200,8832.000,0.300,1846.000,0.500,467.000,1.000,293.000,5.000,0
"05/03/07","18:58:48",28795.000,"cc",28306.863,1,0.100,17418.000,0.200,8678.000,0.300,1831.000,0.500,556.000,1.000,312.000,5.000,0
"05/03/07","18:58:54",29257.000,"cc",28269.109,1,0.100,17557.000,0.200,8952.000,0.300,1907.000,0.500,511.000,1.000,330.000,5.000,0
"05/03/07","18:59:00",29313.000,"cc",28324.190,1,0.100,17412.000,0.200,9028.000,0.300,2004.000,0.500,549.000,1.000,320.000,5.000,0
"05/03/07","18:59:06",29562.000,"cc",28305.084,1,0.100,17495.000,0.200,9149.000,0.300,2034.000,0.500,547.000,1.000,337.000,5.000,0
"05/03/07","18:59:12",29374.000,"cc",28323.668,1,0.100,17447.000,0.200,9121.000,0.300,1910.000,0.500,565.000,1.000,331.000,5.000,0
"05/03/07","18:59:18",29389.000,"cc",28324.424,1,0.100,17359.000,0.200,9236.000,0.300,1891.000,0.500,564.000,1.000,339.000,5.000,0
"05/03/07","18:59:24",29440.000,"cc",28308.770,1,0.100,17348.000,0.200,9209.000,0.300,2020.000,0.500,548.000,1.000,315.000,5.000,0
"05/03/07","18:59:30",29515.000,"cc",28374.324,1,0.100,17449.000,0.200,9209.000,0.300,1972.000,0.500,592.000,1.000,293.000,5.000,0
"05/03/07","18:59:36",28800.000,"cc",28290.035,1,0.100,17060.000,0.200,8860.000,0.300,1990.000,0.500,540.000,1.000,350.000,5.000,0
"05/03/07","18:59:42",29334.000,"cc",28261.668,1,0.100,17375.000,0.200,9072.000,0.300,2001.000,0.500,564.000,1.000,322.000,5.000,0
"05/03/07","18:59:48",29743.000,"cc",28263.334,1,0.100,17523.000,0.200,9300.000,0.300,1975.000,0.500,588.000,1.000,357.000,5.000,0
"05/03/07","18:59:54",29120.000,"cc",28296.941,1,0.100,17046.000,0.200,9084.000,0.300,2046.000,0.500,605.000,1.000,339.000,5.000,0
"05/03/07","18:59:18",29389.000,"cc",28324.424,1,0.100,17359.000,0.200,9236.000,0.300,1891.000,0.500,564.000,1.000,339.000,5.000,0
"05/03/07","18:59:24",29440.000,"cc",28308.770,1,0.100,17348.000,0.200,9209.000,0.300,2020.000,0.500,548.000,1.000,315.000,5.000,0
"05/03/07","18:59:30",29515.000,"cc",28374.324,1,0.100,17449.000,0.200,9209.000,0.300,1972.000,0.500,592.000,1.000,293.000,5.000,0
"05/03/07","18:59:36",28800.000,"cc",28290.035,1,0.100,17060.000,0.200,8860.000,0.300,1990.000,0.500,540.000,1.000,350.000,5.000,0
"05/03/07","18:59:42",29334.000,"cc",28261.668,1,0.100,17375.000,0.200,9072.000,0.300,2001.000,0.500,564.000,1.000,322.000,5.000,0
"05/03/07","18:59:48",29743.000,"cc",28263.334,1,0.100,17523.000,0.200,9300.000,0.300,1975.000,0.500,588.000,1.000,357.000,5.000,0
"05/03/07","18:59:54",29120.000,"cc",28296.941,1,0.100,17046.000,0.200,9084.000,0.300,2046.000,0.500,605.000,1.000,339.000,5.000,0
"05/03/07","18:59:42",29334.000,"cc",28261.668,1,0.100,17375.000,0.200,9072.000,0.300,2001.000,0.500,564.000,1.000,322.000,5.000,0
"05/03/07","18:59:48",29743.000,"cc",28263.334,1,0.100,17523.000,0.200,9300.000,0.300,1975.000,0.500,588.000,1.000,357.000,5.000,0
"05/03/07","18:59:54",29120.000,"cc",28296.941,1,0.100,17046.000,0.200,9084.000,0.300,2046.000,0.500,605.000,1.000,339.000,5.000,0
